FW5890 Weather Reports


Display with metric or nautical units.
time (UTC)temp
F
wind
direction
speed
MPH
gust
MPH
rain 1hr
in
rain 24hr
in
rain mn
in
humidity
%
barometer
mb
20260902174008 81 148 1.0 5.0 0.00 0.08 0.08 72 1011.2
20260902173529 81 165 1.0 4.0 0.00 0.08 0.08 73 1011.3
20260902173006 80 146 0.0 5.0 0.00 0.08 0.08 72 1011.4
20260902172534 80 174 2.0 4.0 0.00 0.08 0.08 74 1011.4
20260902172009 80 213 0.0 5.0 0.00 0.08 0.08 75 1011.8
20260902171558 80 279 2.0 5.0 0.00 0.08 0.08 73 1011.8
20260902171020 79 158 1.0 5.0 0.00 0.08 0.08 75 1011.9
20260902170555 79 164 0.0 3.0 0.00 0.08 0.08 77 1012.0
20260902170013 78 148 1.0 7.0 0.00 0.08 0.08 77 1012.1
20260902165558 78 150 2.0 7.0 0.00 0.08 0.08 74 1012.1
20260902165007 79 157 2.0 5.0 0.01 0.08 0.08 75 1012.1
20260902164527 78 177 1.0 4.0 0.01 0.08 0.08 76 1012.0
20260902164046 78 137 1.0 4.0 0.01 0.08 0.08 78 1011.8
20260902163609 77 116 0.0 4.0 0.01 0.08 0.08 79 1011.7
20260902163017 76 170 0.0 5.0 0.01 0.08 0.08 79 1011.8
20260902162536 76 161 0.0 5.0 0.01 0.08 0.08 80 1011.8
20260902162058 76 160 2.0 6.0 0.01 0.08 0.08 79 1011.8
20260902161514 76 155 3.0 5.0 0.01 0.08 0.08 78 1011.7
20260902161049 76 146 0.0 5.0 0.01 0.08 0.08 78 1011.8
20260902160516 76 165 3.0 7.0 0.01 0.08 0.08 76 1011.6
20260902160109 77 155 3.0 7.0 0.01 0.08 0.08 75 1011.6
20260902155541 77 183 2.0 4.0 0.01 0.08 0.08 77 1011.6
20260902155013 76 156 0.0 6.0 0.00 0.07 0.07 79 1011.5
20260902154559 76 161 2.0 6.0 0.00 0.07 0.07 78 1011.3
20260902154007 76 169 1.0 5.0 0.00 0.07 0.07 78 1011.3
20260902153538 75 169 0.0 5.0 0.00 0.07 0.07 80 1011.4
20260902153107 75 163 3.0 5.0 0.00 0.07 0.07 79 1011.4
20260902152516 75 163 1.0 5.0 0.00 0.07 0.07 79 1011.4
20260902152037 75 179 3.0 5.0 0.00 0.07 0.07 79 1011.3
20260902151557 75 192 1.0 4.0 0.00 0.07 0.07 80 1011.2
20260902151006 74 158 2.0 5.0 0.00 0.07 0.07 81 1011.2
20260902150527 74 189 1.0 3.0 0.00 0.07 0.07 82 1011.1
20260902150003 73 136 0.0 7.0 0.00 0.07 0.07 82 1011.3
20260902145521 73 117 2.0 7.0 0.00 0.07 0.07 80 1011.3
20260902145040 73 144 1.0 3.0 0.00 0.07 0.07 82 1011.3
20260902144609 73 179 0.0 6.0 0.00 0.07 0.07 82 1011.2
20260902144011 72 163 2.0 6.0 0.00 0.07 0.07 82 1011.2
20260902143555 72 200 1.0 4.0 0.00 0.07 0.07 82 1011.2
20260902143028 72 166 1.0 5.0 0.00 0.07 0.07 83 1011.4
20260902142549 72 165 0.0 5.0 0.00 0.07 0.07 84 1011.4
20260902142110 72 163 2.0 5.0 0.00 0.07 0.07 83 1011.5
20260902141533 71 177 1.0 3.0 0.00 0.07 0.07 85 1011.7
20260902141008 71 173 1.0 4.0 0.00 0.07 0.07 86 1011.6
20260902140545 70 197 1.0 4.0 0.00 0.07 0.07 86 1011.7
20260902140015 70 166 2.0 5.0 0.00 0.07 0.07 87 1011.5
20260902135530 69 140 1.0 5.0 0.00 0.07 0.07 86 1011.7
20260902135050 70 182 1.0 5.0 0.00 0.07 0.07 85 1011.7
20260902134525 70 221 1.0 5.0 0.00 0.07 0.07 86 1011.4
20260902134008 70 138 2.0 4.0 0.00 0.07 0.07 87 1011.5
20260902133543 69 173 1.0 5.0 0.00 0.07 0.07 87 1011.5
20260902133016 69 164 1.0 5.0 0.00 0.07 0.07 88 1011.6
20260902132558 68 165 0.0 3.0 0.00 0.07 0.07 89 1011.5
20260902132012 68 164 0.0 3.0 0.00 0.07 0.07 89 1011.4
20260902131605 68 158 1.0 3.0 0.00 0.07 0.07 88 1011.3
20260902131036 68 160 1.0 3.0 0.00 0.07 0.07 89 1011.5
20260902130605 68 126 0.0 2.0 0.00 0.07 0.07 90 1011.6
20260902130030 67 126 0.0 4.0 0.00 0.07 0.07 91 1011.5
20260902125559 67 126 0.0 4.0 0.00 0.07 0.07 93 1011.5
20260902125017 66 178 1.0 3.0 0.00 0.07 0.07 93 1011.5
20260902124545 66 179 0.0 3.0 0.00 0.07 0.07 94 1011.5
20260902124001 65 179 0.0 3.0 0.00 0.07 0.07 94 1011.4
20260902123539 65 184 0.0 3.0 0.00 0.07 0.07 95 1011.3
20260902123059 65 178 0.0 2.0 0.00 0.07 0.07 95 1011.3
20260902122511 65 173 0.0 3.0 0.00 0.07 0.07 95 1011.1
20260902122033 64 172 0.0 3.0 0.00 0.07 0.07 95 1011.0
20260902121551 64 167 0.0 2.0 0.00 0.07 0.07 95 1011.2
20260902121007 64 164 0.0 2.0 0.00 0.07 0.07 95 1011.2
20260902120529 64 164 0.0 1.0 0.00 0.07 0.07 95 1011.2
20260902120049 64 164 0.0 2.0 0.00 0.07 0.07 95 1011.3
20260902115524 64 163 0.0 2.0 0.00 0.07 0.07 95 1011.3
20260902115043 64 161 0.0 2.0 0.00 0.07 0.07 95 1011.4
20260902114527 64 161 0.0 2.0 0.00 0.07 0.07 95 1011.4
20260902114106 65 150 0.0 1.0 0.00 0.07 0.07 95 1011.4
20260902113538 65 150 0.0 5.0 0.00 0.07 0.07 95 1011.3
20260902113103 65 148 0.0 5.0 0.00 0.07 0.07 95 1011.4
20260902112534 65 165 0.0 6.0 0.00 0.07 0.07 95 1011.3
20260902112006 65 169 1.0 6.0 0.00 0.07 0.07 95 1011.5
20260902111540 65 173 0.0 2.0 0.00 0.07 0.07 95 1011.7
20260902111059 65 174 0.0 0.0 0.00 0.07 0.07 95 1012.1
20260902110508 65 174 0.0 0.0 0.00 0.07 0.07 95 1012.6
20260902110100 65 174 0.0 0.0 0.00 0.07 0.07 95 1012.4
20260902105609 65 174 0.0 2.0 0.00 0.07 0.07 95 1012.3
20260902105022 65 174 0.0 2.0 0.00 0.07 0.07 95 1012.1
20260902104543 65 174 0.0 7.0 0.00 0.07 0.07 95 1012.0
20260902104016 65 142 2.0 7.0 0.00 0.07 0.07 95 1011.5
20260902103602 65 265 0.0 3.0 0.00 0.07 0.07 95 1012.3
20260902103058 65 265 0.0 1.0 0.00 0.07 0.07 94 1012.3
20260902102522 65 265 0.0 0.0 0.00 0.07 0.07 94 1012.5
20260902102051 65 265 0.0 2.0 0.00 0.07 0.07 94 1012.5
20260902101513 65 264 0.0 2.0 0.00 0.07 0.07 94 1012.6
20260902101057 65 264 0.0 4.0 0.00 0.07 0.07 94 1012.4
20260902100546 65 263 1.0 4.0 0.00 0.07 0.07 94 1012.4
20260902100022 65 283 0.0 2.0 0.00 0.07 0.07 94 1012.2
20260902095506 65 283 0.0 3.0 0.00 0.07 0.07 94 1012.0
20260902095047 65 278 1.0 3.0 0.00 0.07 0.07 94 1012.0
20260902094518 65 246 0.0 2.0 0.00 0.07 0.07 94 1011.6
20260902094104 64 294 0.0 2.0 0.00 0.07 0.07 94 1011.5
20260902093552 65 253 0.0 2.0 0.00 0.07 0.07 93 1011.3
20260902093034 65 254 0.0 3.0 0.00 0.07 0.07 93 1011.0
20260902092504 65 257 0.0 3.0 0.00 0.07 0.07 93 1011.1
20260902092046 65 259 0.0 3.0 0.01 0.07 0.07 93 1011.0
20260902091542 65 212 1.0 5.0 0.01 0.07 0.07 93 1011.1
20260902091029 65 324 0.0 5.0 0.01 0.07 0.07 93 1011.1
20260902090555 65 177 1.0 4.0 0.01 0.07 0.07 93 1011.1
20260902090034 65 230 1.0 4.0 0.01 0.07 0.07 93 1011.2
20260902085511 65 185 0.0 4.0 0.01 0.07 0.07 92 1010.6
20260902085037 65 155 0.0 4.0 0.01 0.07 0.07 93 1010.6
20260902084526 65 160 1.0 5.0 0.02 0.07 0.07 93 1010.7
20260902084008 65 198 1.0 6.0 0.02 0.07 0.07 93 1010.4
20260902083528 65 192 1.0 6.0 0.02 0.07 0.07 92 1009.9
20260902083047 65 128 0.0 3.0 0.02 0.07 0.07 92 1009.9
20260902082507 65 150 0.0 2.0 0.02 0.07 0.07 92 1010.1
20260902082052 65 153 0.0 3.0 0.01 0.06 0.06 92 1010.1
20260902081529 65 136 0.0 5.0 0.01 0.06 0.06 92 1010.3
20260902081104 65 101 0.0 5.0 0.02 0.06 0.06 92 1010.5
20260902080537 65 169 0.0 7.0 0.02 0.06 0.06 92 1010.7
20260902080120 65 150 1.0 6.0 0.03 0.06 0.06 92 1010.7
20260902075544 65 181 2.0 5.0 0.03 0.06 0.06 92 1011.1
20260902075102 65 160 2.0 5.0 0.03 0.06 0.06 93 1011.1
20260902074555 66 152 0.0 2.0 0.02 0.05 0.05 93 1011.4
20260902074046 66 150 0.0 3.0 0.03 0.05 0.05 93 1011.6
20260902073520 66 151 1.0 5.0 0.03 0.05 0.05 94 1011.1
20260902073048 66 157 2.0 7.0 0.04 0.05 0.05 94 1010.9
20260902072514 66 175 1.0 7.0 0.04 0.05 0.05 93 1010.7
20260902072003 66 166 1.0 7.0 0.04 0.05 0.05 92 1010.9
20260902071538 66 172 3.0 7.0 0.04 0.05 0.05 92 1010.9
20260902071006 67 187 3.0 7.0 0.03 0.04 0.04 92 1011.3
20260902070525 67 186 2.0 5.0 0.03 0.04 0.04 91 1011.8
20260902065542 68 181 3.0 6.0 0.02 0.03 0.03 89 1012.4
20260902065030 68 198 1.0 4.0 0.02 0.03 0.03 89 1013.0
20260902064504 69 188 1.0 6.0 0.02 0.03 0.03 89 1013.5
20260902064047 69 273 1.0 8.0 0.01 0.02 0.02 89 1013.8
20260902063512 69 279 1.0 13.0 0.01 0.02 0.02 90 1014.2
20260902063107 70 222 3.0 13.0 0.00 0.01 0.01 90 1014.4
20260902062516 70 338 4.0 12.0 0.01 0.01 0.01 91 1014.7
20260902062037 70 294 4.0 8.0 0.01 0.01 0.01 92 1014.6
20260902061513 70 319 2.0 5.0 0.01 0.01 0.01 92 1013.5
20260902061033 70 217 0.0 0.0 0.01 0.01 0.01 93 1013.1
20260902060506 70 217 0.0 2.0 0.01 0.01 0.01 93 1012.7
20260902060052 69 217 0.0 2.0 0.01 0.01 0.01 93 1012.2
20260902055520 69 217 0.0 1.0 0.01 0.01 0.01 93 1011.8
20260902055054 69 217 0.0 1.0 0.01 0.01 0.01 94 1011.4
20260902054538 69 218 0.0 0.0 0.01 0.01 0.01 94 1010.6
20260902054057 69 218 0.0 0.0 0.01 0.01 0.01 94 1010.7
20260902053541 69 218 0.0 0.0 0.01 0.01 0.01 94 1010.8
20260902053013 69 218 0.0 2.0 0.01 0.01 0.01 94 1011.1
20260902052550 69 219 0.0 4.0 0.00 0.00 0.00 94 1011.5
20260902052109 69 219 0.0 4.0 0.00 0.00 0.00 94 1011.8
20260902051523 69 232 1.0 2.0 0.00 0.00 0.00 94 1011.9
20260902051104 69 298 0.0 0.0 0.00 0.00 0.00 94 1012.4
20260902050538 69 298 0.0 1.0 0.00 0.00 0.00 94 1012.8
20260902050100 69 298 0.0 1.0 0.00 0.00 0.00 95 1012.8
20260902045515 69 298 0.0 0.0 0.00 0.00 0.00 95 1012.8
20260902045054 68 298 0.0 0.0 0.00 0.00 0.00 95 1012.4
20260902044524 68 298 0.0 0.0 0.00 0.00 0.00 95 1012.1
20260902044104 68 298 0.0 0.0 0.00 0.00 0.00 95 1011.7
20260902043519 68 298 0.0 0.0 0.00 0.00 0.00 95 1011.7
20260902043058 68 298 0.0 0.0 0.00 0.00 0.00 94 1011.5
20260902042530 68 298 0.0 0.0 0.00 0.00 0.00 94 1011.4
20260902042008 68 298 0.0 0.0 0.00 0.00 0.00 94 1011.4
20260902041602 68 298 0.0 0.0 0.00 0.00 0.00 94 1011.4
20260902041011 68 298 0.0 0.0 0.00 0.00 0.00 94 1011.3
20260902040540 68 298 0.0 0.0 0.00 0.00 0.00 94 1011.3
20260902040016 68 298 0.0 0.0 0.00 0.00 0.00 94 1011.4
20260902035534 69 298 0.0 0.0 0.00 0.00 0.00 93 1011.4
20260902035053 69 298 0.0 0.0 0.00 0.00 0.00 94 1011.4
20260902034528 69 298 0.0 0.0 0.00 0.00 0.00 94 1011.3
20260902034047 69 298 0.0 1.0 0.00 0.00 0.00 94 1011.3
20260902033608 69 298 0.0 1.0 0.00 0.00 0.00 94 1011.6
20260902033055 69 299 0.0 0.0 0.00 0.00 0.00 94 1011.9
20260902032537 69 299 0.0 0.0 0.00 0.00 0.00 93 1012.2
20260902032053 69 299 0.0 0.0 0.00 0.00 0.00 93 1012.3
20260902031504 69 299 0.0 0.0 0.00 0.00 0.00 93 1012.3
20260902031048 69 299 0.0 0.0 0.00 0.00 0.00 93 1012.2
20260902030607 69 299 0.0 0.0 0.00 0.00 0.00 93 1012.2
20260902030019 69 299 0.0 0.0 0.00 0.00 0.00 93 1012.1
20260902025603 69 299 0.0 0.0 0.00 0.00 0.00 92 1012.1
20260902025124 69 299 0.0 0.0 0.00 0.00 0.00 92 1012.0
20260902024531 69 299 0.0 0.0 0.00 0.00 0.00 91 1011.9
20260902024006 69 299 0.0 0.0 0.00 0.00 0.00 91 1011.9
20260902023536 69 299 0.0 0.0 0.00 0.00 0.00 91 1011.9
20260902023116 70 299 0.0 0.0 0.00 0.00 0.00 91 1012.0
20260902022539 70 299 0.0 0.0 0.00 0.00 0.00 90 1011.8
20260902022014 70 299 0.0 0.0 0.00 0.00 0.00 91 1011.8
20260902021551 70 299 0.0 0.0 0.00 0.00 0.00 91 1011.9
20260902021009 70 299 0.0 0.0 0.00 0.00 0.00 90 1012.0
20260902020526 70 299 0.0 0.0 0.00 0.00 0.00 88 1012.0
20260902020047 71 299 0.0 0.0 0.00 0.00 0.00 88 1012.0
20260902015519 71 299 0.0 0.0 0.00 0.00 0.00 88 1011.9
20260902015038 71 299 0.0 0.0 0.00 0.00 0.00 87 1011.9
20260902014558 71 299 0.0 0.0 0.00 0.00 0.00 87 1011.8
20260902014032 72 299 0.0 0.0 0.00 0.00 0.00 86 1011.6
20260902013502 72 299 0.0 0.0 0.00 0.00 0.00 85 1011.5
20260902013024 72 299 0.0 0.0 0.00 0.00 0.00 84 1011.6
20260902012547 73 299 0.0 0.0 0.00 0.00 0.00 84 1011.6
20260902012018 73 299 0.0 0.0 0.00 0.00 0.00 84 1011.5
20260902011540 74 299 0.0 0.0 0.00 0.00 0.00 83 1011.5
20260902011104 74 299 0.0 0.0 0.00 0.00 0.00 83 1011.5
20260902010528 75 299 0.0 0.0 0.00 0.00 0.00 83 1011.4
20260902010101 75 299 0.0 0.0 0.00 0.00 0.00 82 1011.4
20260902005517 76 299 0.0 0.0 0.00 0.00 0.00 82 1011.4
20260902005103 76 299 0.0 0.0 0.00 0.00 0.00 80 1011.4
20260902004517 77 299 0.0 0.0 0.00 0.00 0.00 80 1011.4
20260902004040 77 299 0.0 0.0 0.00 0.00 0.00 79 1011.5
20260902003558 78 299 0.0 0.0 0.00 0.00 0.00 80 1011.4
20260902003008 78 299 0.0 0.0 0.00 0.00 0.00 79 1011.3
20260902002543 79 299 0.0 0.0 0.00 0.00 0.00 79 1011.4
20260902002010 79 299 0.0 0.0 0.00 0.00 0.00 75 1011.5
20260902001543 79 299 0.0 0.0 0.00 0.00 0.00 75 1011.6
20260902001014 79 299 0.0 0.0 0.00 0.00 0.00 73 1011.6
20260902000544 79 299 0.0 1.0 0.00 0.00 0.00 73 1011.7
20260902000007 79 299 0.0 1.0 0.00 0.00 0.00 72 1011.8
20260901235554 80 299 0.0 0.0 0.00 0.00 0.00 72 1011.8
20260901235027 80 299 0.0 0.0 0.00 0.00 0.00 71 1011.8
20260901234659 80 299 0.0 0.0 0.00 0.00 0.00 71 1011.8
20260901234012 80 299 0.0 0.0 0.00 0.00 0.00 74 1011.8
20260901233558 80 299 0.0 0.0 0.00 0.00 0.00 72 1011.7
20260901233040 80 299 0.0 0.0 0.00 0.00 0.00 70 1011.8
20260901232606 80 299 0.0 0.0 0.00 0.00 0.00 70 1011.7
20260901232039 80 299 0.0 0.0 0.00 0.00 0.00 70 1011.8
20260901231609 80 299 0.0 2.0 0.00 0.00 0.00 68 1011.7
20260901231048 80 299 0.0 2.0 0.00 0.00 0.00 69 1011.6
20260901230521 81 299 0.0 3.0 0.00 0.00 0.00 68 1011.6
20260901230005 81 299 0.0 3.0 0.00 0.00 0.00 69 1011.7
20260901225547 81 290 0.0 0.0 0.00 0.00 0.00 69 1011.7
20260901225030 81 290 0.0 2.0 0.00 0.00 0.00 70 1011.7
20260901224510 81 290 0.0 2.0 0.00 0.00 0.00 69 1011.8
20260901224054 81 286 0.0 2.0 0.00 0.00 0.00 69 1011.7
20260901223521 81 286 0.0 1.0 0.00 0.00 0.00 68 1011.8
20260901223018 82 286 0.0 1.0 0.00 0.00 0.00 67 1011.7
20260901222541 82 286 0.0 1.0 0.00 0.00 0.00 67 1011.7
20260901222023 82 286 0.0 1.0 0.00 0.00 0.00 66 1011.7
20260901221622 82 286 0.0 2.0 0.00 0.00 0.00 67 1011.6
20260901221044 82 286 0.0 5.0 0.00 0.00 0.00 66 1011.7
20260901220523 82 275 2.0 5.0 0.00 0.00 0.00 65 1011.7
20260901220114 82 317 0.0 3.0 0.00 0.00 0.00 65 1011.6
20260901215508 82 317 1.0 3.0 0.00 0.00 0.00 65 1011.7
20260901215053 82 316 0.0 3.0 0.00 0.00 0.00 65 1011.7
20260901214513 82 317 0.0 2.0 0.00 0.00 0.00 65 1011.6
20260901214043 82 317 1.0 2.0 0.00 0.00 0.00 64 1011.6
20260901213540 82 317 0.0 4.0 0.00 0.00 0.00 63 1011.6
20260901213124 82 317 2.0 4.0 0.00 0.00 0.00 63 1011.7
20260901212514 82 307 1.0 4.0 0.00 0.00 0.00 64 1011.7
20260901212100 82 307 0.0 4.0 0.00 0.00 0.00 63 1011.6
20260901211534 82 306 1.0 4.0 0.00 0.00 0.00 63 1011.6
20260901211029 82 319 1.0 4.0 0.00 0.00 0.00 66 1011.6
20260901210505 82 323 1.0 3.0 0.00 0.00 0.00 65 1011.6
20260901210035 82 324 0.0 2.0 0.00 0.00 0.00 64 1011.7
20260901205522 82 324 0.0 2.0 0.00 0.00 0.00 64 1011.7
20260901205019 82 324 0.0 2.0 0.00 0.00 0.00 64 1011.6
20260901204546 82 324 0.0 2.0 0.00 0.00 0.00 64 1011.5
20260901204021 82 324 0.0 2.0 0.00 0.00 0.00 66 1011.5
20260901203545 82 324 0.0 3.0 0.00 0.00 0.00 61 1011.6
20260901203036 83 325 0.0 4.0 0.00 0.00 0.00 63 1011.9
20260901202532 83 309 2.0 5.0 0.00 0.00 0.00 61 1012.0
20260901202103 83 308 2.0 5.0 0.00 0.00 0.00 61 1012.1
20260901201533 83 304 2.0 5.0 0.00 0.00 0.00 62 1012.2
20260901201001 83 317 1.0 3.0 0.00 0.00 0.00 60 1012.1
20260901200536 83 316 0.0 3.0 0.00 0.00 0.00 60 1012.1
20260901200013 83 319 1.0 3.0 0.00 0.00 0.00 59 1011.9
20260901195600 83 319 0.0 3.0 0.00 0.00 0.00 64 1011.9
20260901195032 82 319 1.0 3.0 0.00 0.00 0.00 60 1012.0
20260901194553 82 322 0.0 5.0 0.00 0.00 0.00 60 1011.9
20260901194003 83 323 1.0 5.0 0.00 0.00 0.00 60 1012.2
20260901193545 83 321 2.0 5.0 0.00 0.00 0.00 59 1012.4
20260901193127 83 320 2.0 4.0 0.00 0.00 0.00 59 1012.3
20260901192514 83 311 1.0 3.0 0.00 0.00 0.00 58 1012.0
20260901192038 83 310 1.0 4.0 0.00 0.00 0.00 58 1012.3
20260901191557 83 310 0.0 4.0 0.00 0.00 0.00 58 1012.4
20260901191008 83 305 1.0 5.0 0.00 0.00 0.00 56 1012.3
20260901190530 84 294 1.0 5.0 0.00 0.00 0.00 58 1012.3
20260901190109 84 311 0.0 3.0 0.00 0.00 0.00 59 1012.4
20260901185544 85 313 0.0 3.0 0.00 0.00 0.00 60 1012.3
20260901185027 85 296 0.0 3.0 0.00 0.00 0.00 57 1012.2
20260901184604 86 307 0.0 4.0 0.00 0.00 0.00 58 1012.2
20260901184119 86 308 1.0 4.0 0.00 0.00 0.00 55 1012.3
20260901183538 87 192 0.0 2.0 0.00 0.00 0.00 56 1011.9
20260901183033 87 193 0.0 3.0 0.00 0.00 0.00 57 1012.0
20260901182605 86 193 1.0 3.0 0.00 0.00 0.00 55 1012.1
20260901182039 86 199 1.0 3.0 0.00 0.00 0.00 59 1012.2
20260901181558 85 210 0.0 4.0 0.00 0.00 0.00 60 1012.4
20260901181009 85 319 1.0 4.0 0.00 0.00 0.00 58 1012.5
20260901180532 84 312 0.0 3.0 0.00 0.00 0.00 62 1012.6
20260901180049 84 309 0.0 3.0 0.00 0.00 0.00 60 1012.6
20260901175608 84 309 0.0 3.0 0.00 0.00 0.00 58 1012.8
20260901175043 84 302 0.0 3.0 0.00 0.00 0.00 61 1012.8
20260901174604 84 302 0.0 2.0 0.00 0.00 0.00 59 1012.8